Regional Weather Roundup
Issued by NWS Newport/Morehead, NC

Current Version | Previous Version | Text Only | Print | Product List | Glossary Off
Versions: 1 2 3 4 5 6 7 8 9 10 11 12 13 14 15 16 17 18 19 20 21 22 23 24 25 26 27 28 29 30 31 32 33 34 35 36 37 38 39 40 41 42 43 44 45 46 47 48 49 50
000 ASUS42 KMHX 282222 RWRMHX WEATHER ROUNDUP FOR EASTERN NORTH CAROLINA NATIONAL WEATHER SERVICE NEWPORT/MOREHEAD CITY NC 500 PM EST WED JAN 28 2015 NOTE: "FAIR" INDICATES FEW OR NO CLOUDS BELOW 12,000 FEET WITH NO SIGNIFICANT WEATHER AND/OR OBSTRUCTIONS TO VISIBILITY NCZ015>017-031-032-045>047-102-103-282300- NORTH COAST CITY SKY/WX TMP DP RH WIND PRES REMARKS EDENTON CLEAR 39 11 30 N7 30.23R ELIZABETH CITY CLEAR 39 10 30 NW12 30.21R KITTY HAWK CLEAR 37 10 32 N6 30.19R MANTEO CLEAR 37 12 35 NW8G17 30.20R $$ NCZ045>047-081-094-103-104-282300- CENTRAL COAST CITY SKY/WX TMP DP RH WIND PRES REMARKS FRISCO CLEAR 39 14 36 N8 30.19R SWANQUARTER NOT AVBL $$ NCZ095-097-098-100-101-282300- SOUTHERN COAST CITY SKY/WX TMP DP RH WIND PRES REMARKS BEAUFORT CLEAR 42 13 30 N8 30.22R CEDAR ISLAND NOT AVBL JACKSONVILLE CLEAR 43 13 29 NW10 30.24R PINEY ISLAND N/A N/A N/A N/A MISG 30.22R WILMINGTON CLEAR 44 14 29 NW15 30.25R $$ NCZ011>013-027>030-043-044-078>080-089-090>093-098-282300- COASTAL PLAIN CITY SKY/WX TMP DP RH WIND PRES REMARKS AHOSKIE CLEAR 39 7 26 NW6 30.25R CLINTON CLEAR 44 15 31 CALM 30.26R ELIZABETHTOWN CLEAR 44 13 28 CALM 30.25R GOLDSBORO CLEAR 43 11 27 N5 30.24R GREENVILLE CLEAR 43 10 26 N6 30.26R HAVELOCK CLEAR 43 10 26 N13 30.23R KENANSVILLE CLEAR 42 13 30 NW5 30.27R KINSTON CLEAR 43 10 26 N7 30.26R NEW BERN CLEAR 43 10 26 N9 30.24R RICHLANDS CLEAR 41 12 30 NW5 30.26R ROCKY MOUNT CLEAR 43 6 21 N7 30.25R WASHINGTON CLEAR 40 11 29 NW7 30.24R WHITEVILLE CLEAR 45 11 25 N5 30.24S $$ AMZ130-135-150-152-154-156-158-170-250-252-270-ANZ085-086-088-633-658-670-282300- MARINE OBSERVATIONS STATION/POSITION TIME TEMP WIND PRES WAVE SWELL AIR SEA DIR/SP/G HT/PER HT/PER (UTC) (F) (DEG/KT/KT) (MB) (FT/S) (FT/S) CHESAPEAKE LIGHT 2200 36 330/ 26/ 28 1023.0 64 E VA BEACH 2200 37 51 330/ 21/ 27 1020.6 9/13 5/13 DUCK 2200 42 1021.7 2 E DUCK 2200 42 N/A 5/12 3/12 10 NE DUCK 2100 45 N/A 8/13 3/13 OREGON INLET 2200 42 1022.5 13E OREGON INLT 2200 45 N/A 8/13 5/13 HATTERAS CG 2200 45 1022.9 DIAMOND BUOY 2200 40 330/ 16/ 19 1022.0 6/ 7 5/ 7 17 S OCRACOKE NOT AVBL CAPE LOOKOUT 2200 42 360/ 12/ 13 1023.1 BEAUFORT LAB 2200 47 1022.3 27 SE WRIGHTSVLE NOT AVBL 5 SE WRIGHTSVLE 2200 46 53 340/ 14/ 17 1024.1 225 S CAPE HAT 2054 56 72 340/ 21/ 27 1018.5 10/12 5/12 41 SE CHARLESTON 2200 46 65 350/ 12/ 17 1024.1 4/ 5 3/13 $$

USA.gov is the U.S. government's official web portal to all federal, state and local government web resources and services.